Tracking 18980 objects as of 21-Feb-2018
HD Live streaming from Space Station
objects crossing your sky now

FLOCK 2EP 3

Track FLOCK 2EP 3 now!
10-day predictions
FLOCK 2EP 3 is classified as:


NORAD ID: 41480
Int'l Code: 1998-067JA
Perigee: 315.1 km
Apogee: 317.4 km
Inclination: 51.6 °
Period: 90.7 minutes
Semi major axis: 6687 km
RCS: Unknown
Launch date: November 20, 1998
Source: United States (US)
Launch site: TYURATAM MISSILE AND SPACE COMPLEX (TTMTR)
aabbcc
Your satellite tracking list
Your tracking list is empty




NASA's NSSDC Master Catalog

Two Line Element Set (TLE):
1 41480U 98067JA  18052.54435583  .00051243  00000-0  18997-3 0  9992
2 41480  51.6222 170.3699 0001703 344.6547  15.4406 15.87570366101196
Source of the keplerian elements: AFSPC